Youngstown, OH

10:31 PM EDT on April 24, 2017 (GMT -0400)
Youngstown-Warren Regional

Weather History for KYNG - January, 2012

Change the Weather History Date:

Saturday, January 7, 2012

  Actual Average Record
Temperature  
Mean Temperature 42 °F 26 °F  
Max Temperature 46 °F 32 °F 63 °F (2008)
Min Temperature 37 °F 19 °F -12 °F (2014)
Degree Days  
Heating Degree Days 23 39  
Month to date heating degree days 235 273  
Since 1 July heating degree days 2240 2679  
Cooling Degree Days 0 0  
Month to date cooling degree days 0 0  
Year to date cooling degree days 0 0  
Moisture  
Dew Point 29 °F    
Average Humidity 58    
Maximum Humidity 70    
Minimum Humidity 45    
Precipitation  
Precipitation 0.00 in 0.09 in 1.02 in (1998)
Month to date precipitation 0.42 0.63  
Year to date precipitation 0.42 0.63  
Snow  
Snow 0.00 in 0.60 in - ()
Month to date snowfall 6.4 3.7  
Since 1 July snowfall 16.5 23.1  
Snow Depth 0.00 in    
Sea Level Pressure  
Sea Level Pressure 29.90 in    
Wind  
Wind Speed 10 mph (West)    
Max Wind Speed 20 mph    
Max Gust Speed 28 mph    
Visibility 10 miles    
Events      
T = Trace of Precipitation, MM = Missing Value Source: NWS Daily Summary

Daily Weather History Graph

Daily Weather History Graph

Search for Another Location

Airport or City:

Trip Planner

Search our weather history database for the weather conditions in past years. The results will help you decide how hot, cold, wet, or windy it might be!

Date:

Astronomy

Jan. 07, 2012 Rise Set
Actual Time 7:48 AM EST 5:09 PM EST
Civil Twilight 7:17 AM EST 5:40 PM EST
Nautical Twilight 6:43 AM EST 6:14 PM EST
Astronomical Twilight 6:09 AM EST 6:48 PM EST
Moon 3:52 PM EST (1/7) 6:18 AM EST (1/7)
Length of Visible Light 10h 22m
Length of Day
9h 21m
Waxing Gibbous, 97% of the Moon is Illuminated
Jan 7
Waxing Gibbous
Jan 9
Full
Jan 16
Last Quarter
Jan 23
New
Jan 30
First Quarter

Hourly Weather History & Observations

Time (EST) Temp. Windchill Dew Point Humidity Pressure Visibility Wind Dir Wind Speed Gust Speed Precip Events Conditions
12:51 AM 46.0 °F 40.2 °F 30.0 °F 54% 29.74 in 10.0 mi SW 12.7 mph - N/A   Partly Cloudy
1:51 AM 45.0 °F 40.1 °F 30.0 °F 56% 29.73 in 10.0 mi SW 9.2 mph - N/A   Partly Cloudy
2:51 AM 44.1 °F 39.5 °F 28.9 °F 55% 29.73 in 10.0 mi SSW 8.1 mph - N/A   Partly Cloudy
3:51 AM 43.0 °F 37.2 °F 28.9 °F 58% 29.73 in 10.0 mi SSW 10.4 mph - N/A   Partly Cloudy
4:51 AM 43.0 °F 37.7 °F 28.9 °F 58% 29.72 in 10.0 mi SSW 9.2 mph - N/A   Partly Cloudy
5:51 AM 42.1 °F 36.1 °F 30.0 °F 62% 29.72 in 10.0 mi SSW 10.4 mph - N/A   Partly Cloudy
6:51 AM 42.1 °F 35.7 °F 30.9 °F 65% 29.75 in 10.0 mi SW 11.5 mph - N/A   Mostly Cloudy
7:51 AM 39.9 °F 33.4 °F 30.9 °F 70% 29.76 in 10.0 mi SW 10.4 mph - N/A   Scattered Clouds
8:51 AM 42.1 °F 35.2 °F 32.0 °F 67% 29.80 in 10.0 mi WSW 12.7 mph - N/A   Mostly Cloudy
9:51 AM 43.0 °F 36.8 °F 33.1 °F 68% 29.83 in 10.0 mi West 11.5 mph - N/A   Mostly Cloudy
10:51 AM 42.1 °F 34.5 °F 32.0 °F 67% 29.87 in 10.0 mi West 15.0 mph - N/A   Mostly Cloudy
11:51 AM 45.0 °F 38.5 °F 32.0 °F 60% 29.87 in 10.0 mi WNW 13.8 mph - N/A   Mostly Cloudy
12:51 PM 45.0 °F 38.5 °F 30.9 °F 58% 29.88 in 10.0 mi West 13.8 mph - N/A   Scattered Clouds
1:51 PM 44.1 °F 37.1 °F 28.9 °F 55% 29.91 in 10.0 mi West 15.0 mph - N/A   Scattered Clouds
2:51 PM 45.0 °F 38.5 °F 27.0 °F 49% 29.93 in 10.0 mi WNW 13.8 mph - N/A   Scattered Clouds
3:51 PM 44.1 °F 37.1 °F 25.0 °F 47% 29.97 in 10.0 mi NW 15.0 mph - N/A   Scattered Clouds
4:51 PM 41.0 °F 34.7 °F 24.1 °F 51% 30.00 in 10.0 mi WNW 10.4 mph - N/A   Scattered Clouds
5:51 PM 37.9 °F 32.7 °F 26.1 °F 62% 30.04 in 10.0 mi WNW 6.9 mph - N/A   Partly Cloudy
6:51 PM 37.9 °F 33.5 °F 27.0 °F 65% 30.05 in 10.0 mi West 5.8 mph - N/A   Mostly Cloudy
7:51 PM 37.9 °F 32.7 °F 27.0 °F 65% 30.07 in 10.0 mi West 6.9 mph - N/A   Mostly Cloudy
8:51 PM 37.9 °F 32.7 °F 27.0 °F 65% 30.08 in 10.0 mi WNW 6.9 mph - N/A   Overcast
9:51 PM 37.9 °F 32.7 °F 27.0 °F 65% 30.09 in 10.0 mi West 6.9 mph - N/A   Overcast
10:51 PM 37.9 °F 32.7 °F 27.0 °F 65% 30.11 in 10.0 mi West 6.9 mph - N/A   Overcast
11:51 PM 37.0 °F 33.3 °F 27.0 °F 67% 30.12 in 10.0 mi West 4.6 mph - N/A   Overcast